START_TIME,STEP,MOV.,M34,t_acc.,L5,t_acc.,L18,t_acc.,L14,t_acc.
1981-08-24 03:00:25.790 ,7,1,0.,12.0,0.,12.0,0.,12.0,0.,12.0
1981-08-24 03:00:37.790 ,7,1,0.,12.0,0.,12.0,0.,12.0,0.,12.0
1981-08-24 03:00:49.790 ,7,1,0.,12.0,0.,12.0,0.,12.0,0.,12.0
1981-08-24 03:01:01.790 ,7,1,0.,12.0,0.,12.0,0.,12.0,0.,12.0
1981-08-24 03:01:13.790 ,7,0,0.,12.0,0.,12.0,0.,12.0,0.,12.0
1981-08-24 03:01:25.790 ,7,0,0.,12.0,0.,12.0,0.,12.0,0.,12.0
1981-08-24 03:01:37.790 ,6,1,0.,12.0,0.,12.0,0.,12.0,0.,12.0
1981-08-24 03:01:49.790 ,6,1,0.,12.0,0.,12.0,0.,12.0,0.,12.0
1981-08-24 03:02:01.790 ,6,0,0.,12.0,0.,12.0,0.,12.0,0.,12.0
1981-08-24 03:02:13.790 ,6,0,0.,12.0,0.,12.0,0.,12.0,0.,12.0
1981-08-24 03:02:25.790 ,5,1,0.,12.0,0.,12.0,0.,12.0,0.,12.0
1981-08-24 03:02:37.790 ,5,1,0.,12.0,0.,12.0,0.,12.0,0.,12.0
1981-08-24 03:02:49.790 ,5,0,0.,12.0,0.,12.0,0.,12.0,0.,12.0
1981-08-24 03:03:01.790 ,5,0,0.,12.0,0.,12.0,0.,12.0,0.,12.0
1981-08-24 03:03:13.790 ,4,1,0.,12.0,0.,12.0,0.,12.0,0.,12.0
1981-08-24 03:03:25.790 ,4,1,0.,12.0,0.,12.0,0.,12.0,0.,12.0
1981-08-24 03:03:37.790 ,4,0,0.,12.0,0.,12.0,0.,12.0,0.,12.0
1981-08-24 03:03:49.790 ,4,0,0.,12.0,0.,12.0,0.,12.0,0.,12.0
1981-08-24 03:04:01.790 ,3,1,0.,12.0,0.,12.0,0.,12.0,0.,12.0
1981-08-24 03:04:13.790 ,3,1,0.,12.0,0.,12.0,0.,12.0,0.,12.0
1981-08-24 03:04:25.790 ,3,0,0.,12.0,0.,12.0,0.,12.0,0.,12.0
1981-08-24 03:04:37.790 ,3,0,0.,12.0,0.,12.0,0.,12.0,0.,12.0
1981-08-24 03:04:49.790 ,2,1,0.,12.0,0.,12.0,0.,12.0,0.,12.0
1981-08-24 03:05:01.790 ,2,1,0.,12.0,0.,12.0,0.,12.0,0.,12.0
1981-08-24 03:05:13.790 ,2,0,0.,12.0,0.,12.0,0.,12.0,0.,12.0
1981-08-24 03:05:25.790 ,2,0,0.,12.0,0.,12.0,0.,12.0,0.,12.0
1981-08-24 03:05:37.790 ,1,1,0.,12.0,0.,12.0,0.,12.0,0.,12.0
1981-08-24 03:05:49.790 ,1,1,0.,12.0,0.,12.0,0.,12.0,0.,12.0
1981-08-24 03:06:01.790 ,1,0,0.,12.0,0.,12.0,0.,12.0,0.,12.0
1981-08-24 03:06:13.790 ,1,0,0.,12.0,0.,12.0,0.,12.0,0.,12.0
1981-08-24 03:06:25.790 ,0,1,0.,12.0,0.,12.0,0.,12.0,0.,12.0
1981-08-24 03:06:37.790 ,0,1,1.,12.0,0.,12.0,0.,12.0,0.,12.0
1981-08-24 03:06:49.790 ,0,0,0.,12.0,0.,12.0,0.,12.0,0.,12.0
1981-08-24 03:07:01.790 ,0,0,0.,12.0,0.,12.0,0.,12.0,0.,12.0
1981-08-24 03:07:13.790 ,0,1,0.,12.0,0.,12.0,0.,12.0,0.,12.0
1981-08-24 03:07:25.790 ,0,1,0.,12.0,0.,12.0,0.,12.0,0.,12.0
1981-08-24 03:07:37.790 ,0,0,0.,12.0,0.,12.0,0.,12.0,0.,12.0
1981-08-24 03:07:49.790 ,0,0,0.,12.0,0.,12.0,0.,12.0,0.,12.0
1981-08-24 03:08:01.790 ,1,1,0.,12.0,0.,12.0,0.,12.0,0.,12.0
1981-08-24 03:08:13.790 ,1,1,0.,12.0,0.,12.0,0.,12.0,0.,12.0
1981-08-24 03:08:25.790 ,1,0,0.,12.0,0.,12.0,0.,12.0,0.,12.0
1981-08-24 03:08:37.790 ,1,0,0.,12.0,0.,12.0,0.,12.0,0.,12.0
1981-08-24 03:08:49.790 ,2,1,0.,12.0,0.,12.0,0.,12.0,0.,12.0
1981-08-24 03:09:01.790 ,2,1,0.,12.0,0.,12.0,0.,12.0,0.,12.0
1981-08-24 03:09:13.790 ,2,0,0.,12.0,0.,12.0,0.,12.0,0.,12.0
1981-08-24 03:09:25.790 ,2,0,0.,12.0,0.,12.0,0.,12.0,0.,12.0
1981-08-24 03:09:37.790 ,3,1,0.,12.0,0.,12.0,0.,12.0,0.,12.0
1981-08-24 03:09:49.790 ,3,1,0.,12.0,0.,12.0,0.,12.0,0.,12.0
1981-08-24 03:10:01.790 ,3,0,0.,12.0,0.,12.0,0.,12.0,0.,12.0
1981-08-24 03:10:13.790 ,3,0,0.,12.0,0.,12.0,0.,12.0,0.,12.0
1981-08-24 03:10:25.790 ,4,1,0.,12.0,0.,12.0,0.,12.0,0.,12.0
1981-08-24 03:10:37.790 ,4,1,0.,12.0,0.,12.0,0.,12.0,0.,12.0
1981-08-24 03:10:49.790 ,4,0,0.,12.0,0.,12.0,0.,12.0,0.,12.0
1981-08-24 03:11:01.790 ,4,0,0.,12.0,0.,12.0,0.,12.0,0.,12.0
1981-08-24 03:11:13.790 ,5,1,0.,12.0,0.,12.0,0.,12.0,0.,12.0
1981-08-24 03:11:25.790 ,5,1,0.,12.0,0.,12.0,0.,12.0,0.,12.0
1981-08-24 03:11:37.790 ,5,0,0.,12.0,0.,12.0,0.,12.0,0.,12.0
1981-08-24 03:11:49.790 ,5,0,0.,12.0,0.,12.0,0.,12.0,0.,12.0
1981-08-24 03:12:01.790 ,6,1,0.,12.0,0.,12.0,0.,12.0,0.,12.0
1981-08-24 03:12:13.790 ,6,1,0.,12.0,0.,12.0,0.,12.0,0.,12.0
1981-08-24 03:12:25.790 ,6,0,0.,12.0,0.,12.0,0.,12.0,0.,12.0
1981-08-24 03:12:37.790 ,6,0,0.,12.0,0.,12.0,0.,12.0,0.,12.0
1981-08-24 03:12:49.790 ,7,1,0.,12.0,0.,12.0,0.,12.0,0.,12.0
1981-08-24 03:13:01.790 ,7,1,0.,12.0,0.,12.0,0.,12.0,0.,12.0
1981-08-24 03:13:13.790 ,7,0,0.,12.0,0.,12.0,0.,12.0,0.,12.0
1981-08-24 03:13:25.790 ,7,0,0.,12.0,0.,12.0,0.,12.0,0.,12.0
1981-08-24 03:13:37.790 ,7,1,0.,12.0,0.,12.0,0.,12.0,0.,12.0
1981-08-24 03:13:49.790 ,7,1,0.,12.0,0.,12.0,0.,12.0,0.,12.0
1981-08-24 03:14:01.790 ,6,1,0.,12.0,0.,12.0,0.,12.0,0.,12.0
1981-08-24 03:14:13.790 ,6,1,0.,12.0,0.,12.0,0.,12.0,0.,12.0
1981-08-24 03:14:25.790 ,5,1,0.,12.0,0.,12.0,0.,12.0,0.,12.0
1981-08-24 03:14:37.790 ,5,1,0.,12.0,0.,12.0,0.,12.0,0.,12.0
1981-08-24 03:14:49.790 ,4,1,0.,12.0,0.,12.0,0.,12.0,0.,12.0
1981-08-24 03:15:01.790 ,4,1,0.,12.0,0.,12.0,0.,12.0,0.,12.0
1981-08-24 03:15:13.790 ,3,1,0.,12.0,0.,12.0,0.,12.0,0.,12.0
1981-08-24 03:15:25.790 ,3,1,0.,12.0,0.,12.0,0.,12.0,0.,12.0
1981-08-24 03:15:37.790 ,2,1,0.,12.0,0.,12.0,0.,12.0,0.,12.0
1981-08-24 03:15:49.790 ,2,1,0.,12.0,0.,12.0,0.,12.0,0.,12.0
1981-08-24 03:16:01.790 ,1,1,0.,12.0,0.,12.0,0.,12.0,0.,12.0
1981-08-24 03:16:13.790 ,1,1,0.,12.0,0.,12.0,0.,12.0,0.,12.0
1981-08-24 03:16:25.790 ,0,1,0.,12.0,0.,12.0,0.,12.0,0.,12.0
1981-08-24 03:16:37.790 ,0,1,0.,12.0,0.,12.0,0.,12.0,0.,12.0
1981-08-24 03:16:49.790 ,0,1,0.,12.0,0.,12.0,0.,12.0,0.,12.0
1981-08-24 03:17:01.790 ,0,1,0.,12.0,0.,12.0,0.,12.0,0.,12.0
1981-08-24 03:17:13.780 ,1,1,0.,12.0,0.,12.0,0.,12.0,0.,12.0
1981-08-24 03:17:25.780 ,1,1,0.,12.0,0.,12.0,0.,12.0,0.,12.0
1981-08-24 03:17:37.780 ,2,1,0.,12.0,0.,12.0,0.,12.0,0.,12.0
1981-08-24 03:17:49.780 ,2,1,0.,12.0,0.,12.0,0.,12.0,0.,12.0
1981-08-24 03:18:01.780 ,3,1,0.,12.0,0.,12.0,0.,12.0,0.,12.0
1981-08-24 03:18:13.780 ,3,1,0.,12.0,0.,12.0,0.,12.0,0.,12.0
1981-08-24 03:18:25.780 ,4,1,0.,12.0,0.,12.0,0.,12.0,0.,12.0
1981-08-24 03:18:37.780 ,4,1,0.,12.0,0.,12.0,0.,12.0,0.,12.0
1981-08-24 03:18:49.780 ,5,1,0.,12.0,0.,12.0,0.,12.0,0.,12.0
1981-08-24 03:19:01.780 ,5,1,0.,12.0,0.,12.0,0.,12.0,0.,12.0
1981-08-24 03:19:13.780 ,6,1,0.,12.0,0.,12.0,0.,12.0,0.,12.0
1981-08-24 03:19:25.780 ,6,1,0.,12.0,0.,12.0,0.,12.0,0.,12.0
1981-08-24 03:19:37.780 ,7,1,0.,12.0,0.,12.0,0.,12.0,0.,12.0
1981-08-24 03:19:49.780 ,7,1,0.,12.0,0.,12.0,0.,12.0,0.,12.0
1981-08-24 03:20:01.780 ,7,1,0.,12.0,0.,12.0,0.,12.0,0.,12.0
1981-08-24 03:20:13.780 ,7,1,0.,12.0,0.,12.0,0.,12.0,0.,12.0
1981-08-24 03:20:25.780 ,7,0,0.,12.0,0.,12.0,0.,12.0,0.,12.0
1981-08-24 03:20:37.780 ,7,0,0.,12.0,0.,12.0,0.,12.0,0.,12.0
1981-08-24 03:20:49.780 ,6,1,0.,12.0,0.,12.0,0.,12.0,0.,12.0
1981-08-24 03:21:01.780 ,6,1,0.,12.0,0.,12.0,0.,12.0,0.,12.0
1981-08-24 03:21:13.780 ,6,0,0.,12.0,0.,12.0,0.,12.0,0.,12.0
1981-08-24 03:21:25.780 ,6,0,0.,12.0,0.,12.0,0.,12.0,0.,12.0
1981-08-24 03:21:37.780 ,5,1,0.,12.0,0.,12.0,0.,12.0,0.,12.0
1981-08-24 03:21:49.780 ,5,1,0.,12.0,0.,12.0,0.,12.0,0.,12.0
1981-08-24 03:22:01.780 ,5,0,0.,12.0,0.,12.0,0.,12.0,0.,12.0
1981-08-24 03:22:13.780 ,5,0,0.,12.0,0.,12.0,0.,12.0,0.,12.0
1981-08-24 03:22:25.780 ,4,1,0.,12.0,0.,12.0,0.,12.0,0.,12.0
1981-08-24 03:22:37.780 ,4,1,0.,12.0,0.,12.0,0.,12.0,0.,12.0
1981-08-24 03:22:49.780 ,4,0,0.,12.0,0.,12.0,0.,12.0,0.,12.0
1981-08-24 03:23:01.780 ,4,0,0.,12.0,0.,12.0,0.,12.0,0.,12.0
1981-08-24 03:23:13.780 ,3,1,0.,12.0,0.,12.0,0.,12.0,0.,12.0
1981-08-24 03:23:25.780 ,3,1,0.,12.0,0.,12.0,0.,12.0,0.,12.0
1981-08-24 03:23:37.780 ,3,0,0.,12.0,0.,12.0,0.,12.0,0.,12.0
1981-08-24 03:23:49.780 ,3,0,0.,12.0,0.,12.0,0.,12.0,0.,12.0
1981-08-24 03:24:01.780 ,2,1,0.,12.0,0.,12.0,0.,12.0,0.,12.0
1981-08-24 03:24:13.780 ,2,1,0.,12.0,0.,12.0,0.,12.0,0.,12.0
1981-08-24 03:24:25.780 ,2,0,0.,12.0,0.,12.0,0.,12.0,0.,12.0
1981-08-24 03:24:37.780 ,2,0,0.,12.0,0.,12.0,0.,12.0,0.,12.0
1981-08-24 03:24:49.780 ,1,1,0.,12.0,0.,12.0,0.,12.0,0.,12.0
1981-08-24 03:25:01.780 ,1,1,0.,12.0,0.,12.0,0.,12.0,0.,12.0
1981-08-24 03:25:13.780 ,1,0,0.,12.0,0.,12.0,0.,12.0,0.,12.0
1981-08-24 03:25:25.780 ,1,0,0.,12.0,0.,12.0,0.,12.0,0.,12.0
1981-08-24 03:25:37.780 ,0,1,0.,12.0,0.,12.0,0.,12.0,0.,12.0
1981-08-24 03:25:49.780 ,0,1,0.,12.0,0.,12.0,0.,12.0,0.,12.0
1981-08-24 03:26:01.780 ,0,0,0.,12.0,0.,12.0,0.,12.0,0.,12.0
1981-08-24 03:26:13.780 ,0,0,0.,12.0,0.,12.0,0.,12.0,0.,12.0
1981-08-24 03:26:25.780 ,0,1,0.,12.0,0.,12.0,0.,12.0,0.,12.0
1981-08-24 03:26:37.780 ,0,1,0.,12.0,0.,12.0,0.,12.0,0.,12.0
1981-08-24 03:26:49.780 ,0,0,0.,12.0,0.,12.0,0.,12.0,0.,12.0
1981-08-24 03:27:01.780 ,0,0,0.,12.0,0.,12.0,0.,12.0,0.,12.0
1981-08-24 03:27:13.780 ,1,1,0.,12.0,0.,12.0,0.,12.0,0.,12.0
1981-08-24 03:27:25.780 ,1,1,0.,12.0,0.,12.0,0.,12.0,0.,12.0
1981-08-24 03:27:37.780 ,1,0,0.,12.0,0.,12.0,0.,12.0,0.,12.0
1981-08-24 03:27:49.780 ,1,0,0.,12.0,0.,12.0,0.,12.0,0.,12.0
1981-08-24 03:28:01.780 ,2,1,0.,12.0,0.,12.0,0.,12.0,0.,12.0
1981-08-24 03:28:13.780 ,2,1,0.,12.0,0.,12.0,0.,12.0,0.,12.0
1981-08-24 03:28:25.780 ,2,0,0.,12.0,0.,12.0,0.,12.0,0.,12.0
1981-08-24 03:28:37.780 ,2,0,0.,12.0,0.,12.0,0.,12.0,0.,12.0
1981-08-24 03:28:49.780 ,3,1,0.,12.0,0.,12.0,0.,12.0,0.,12.0
1981-08-24 03:29:01.780 ,3,1,0.,12.0,0.,12.0,0.,12.0,0.,12.0
1981-08-24 03:29:13.780 ,3,0,0.,12.0,0.,12.0,0.,12.0,0.,12.0
1981-08-24 03:29:25.780 ,3,0,0.,12.0,0.,12.0,0.,12.0,0.,12.0
1981-08-24 03:29:37.780 ,4,1,0.,12.0,0.,12.0,0.,12.0,0.,12.0
1981-08-24 03:29:49.780 ,4,1,0.,12.0,0.,12.0,0.,12.0,0.,12.0
1981-08-24 03:30:01.780 ,4,0,0.,12.0,0.,12.0,0.,12.0,0.,12.0
1981-08-24 03:30:13.780 ,4,0,0.,12.0,0.,12.0,0.,12.0,0.,12.0
1981-08-24 03:30:25.780 ,5,1,0.,12.0,0.,12.0,0.,12.0,0.,12.0
1981-08-24 03:30:37.780 ,5,1,0.,12.0,0.,12.0,0.,12.0,0.,12.0
1981-08-24 03:30:49.780 ,5,0,0.,12.0,0.,12.0,0.,12.0,0.,12.0
1981-08-24 03:31:01.780 ,5,0,0.,12.0,0.,12.0,0.,12.0,0.,12.0
1981-08-24 03:31:13.780 ,6,1,0.,12.0,0.,12.0,0.,12.0,0.,12.0
1981-08-24 03:31:25.780 ,6,1,0.,12.0,0.,12.0,0.,12.0,0.,12.0
1981-08-24 03:31:37.780 ,6,0,0.,12.0,0.,12.0,0.,12.0,0.,12.0
1981-08-24 03:31:49.780 ,6,0,0.,12.0,0.,12.0,0.,12.0,0.,12.0
1981-08-24 03:32:01.780 ,7,1,0.,12.0,0.,12.0,0.,12.0,0.,12.0
1981-08-24 03:32:13.780 ,7,1,0.,12.0,0.,12.0,0.,12.0,0.,12.0
1981-08-24 03:32:25.780 ,7,0,0.,12.0,0.,12.0,0.,12.0,0.,12.0
1981-08-24 03:32:37.780 ,7,0,0.,12.0,0.,12.0,0.,12.0,0.,12.0
1981-08-24 03:32:49.780 ,7,1,0.,12.0,0.,12.0,0.,12.0,0.,12.0
1981-08-24 03:33:01.780 ,7,1,0.,12.0,0.,12.0,0.,12.0,0.,12.0
1981-08-24 03:33:13.780 ,6,1,0.,12.0,0.,12.0,0.,12.0,0.,12.0
1981-08-24 03:33:25.780 ,6,1,0.,12.0,0.,12.0,0.,12.0,0.,12.0
1981-08-24 03:33:37.780 ,5,1,0.,12.0,0.,12.0,0.,12.0,0.,12.0
1981-08-24 03:33:49.780 ,5,1,0.,12.0,0.,12.0,0.,12.0,0.,12.0
1981-08-24 03:34:01.780 ,4,1,0.,12.0,0.,12.0,0.,12.0,0.,12.0
1981-08-24 03:34:13.780 ,4,1,0.,12.0,0.,12.0,0.,12.0,0.,12.0
1981-08-24 03:34:25.780 ,3,1,0.,12.0,0.,12.0,0.,12.0,0.,12.0
1981-08-24 03:34:37.780 ,3,1,0.,12.0,0.,12.0,0.,12.0,0.,12.0
1981-08-24 03:34:49.780 ,2,1,0.,12.0,0.,12.0,0.,12.0,0.,12.0
1981-08-24 03:35:01.780 ,2,1,0.,12.0,0.,12.0,0.,12.0,0.,12.0
1981-08-24 03:35:13.780 ,1,1,0.,12.0,0.,12.0,0.,12.0,0.,12.0
1981-08-24 03:35:25.780 ,1,1,0.,12.0,0.,12.0,0.,12.0,0.,12.0
1981-08-24 03:35:37.780 ,0,1,0.,12.0,0.,12.0,0.,12.0,0.,12.0
1981-08-24 03:35:49.780 ,0,1,0.,12.0,0.,12.0,0.,12.0,0.,12.0
1981-08-24 03:36:01.780 ,0,1,0.,12.0,0.,12.0,0.,12.0,0.,12.0
1981-08-24 03:36:13.780 ,0,1,0.,12.0,0.,12.0,0.,12.0,0.,12.0
1981-08-24 03:36:25.780 ,1,1,0.,12.0,0.,12.0,0.,12.0,0.,12.0
1981-08-24 03:36:37.780 ,1,1,0.,12.0,0.,12.0,0.,12.0,0.,12.0
1981-08-24 03:37:37.780 ,0,0,0.,12.0,0.,12.0,0.,12.0,0.,12.0
1981-08-24 03:37:49.780 ,0,0,0.,12.0,0.,12.0,0.,12.0,0.,12.0
1981-08-24 03:38:01.780 ,5,1,0.,12.0,0.,12.0,0.,12.0,0.,12.0
1981-08-24 03:38:13.780 ,5,1,0.,12.0,0.,12.0,0.,12.0,0.,12.0
1981-08-24 03:38:25.780 ,6,1,0.,12.0,0.,12.0,0.,12.0,0.,12.0
1981-08-24 03:38:37.780 ,6,1,0.,12.0,0.,12.0,0.,12.0,0.,12.0
1981-08-24 03:38:49.780 ,7,1,0.,12.0,0.,12.0,0.,12.0,0.,12.0
1981-08-24 03:39:01.780 ,7,1,0.,12.0,0.,12.0,0.,12.0,0.,12.0
1981-08-24 03:39:13.780 ,7,1,0.,12.0,0.,12.0,0.,12.0,0.,12.0
1981-08-24 03:39:25.780 ,7,1,0.,12.0,0.,12.0,0.,12.0,0.,12.0
1981-08-24 03:39:37.780 ,7,0,0.,12.0,0.,12.0,0.,12.0,0.,12.0
1981-08-24 03:39:49.780 ,7,0,0.,12.0,0.,12.0,0.,12.0,0.,12.0
1981-08-24 03:40:01.780 ,6,1,0.,12.0,0.,12.0,0.,12.0,0.,12.0
1981-08-24 03:40:13.780 ,6,1,0.,12.0,0.,12.0,0.,12.0,0.,12.0
1981-08-24 03:40:25.780 ,6,0,0.,12.0,0.,12.0,0.,12.0,0.,12.0
1981-08-24 03:40:37.780 ,6,0,0.,12.0,0.,12.0,0.,12.0,0.,12.0
1981-08-24 03:40:49.780 ,5,1,0.,12.0,0.,12.0,0.,12.0,0.,12.0
1981-08-24 03:41:01.780 ,5,1,0.,12.0,0.,12.0,0.,12.0,0.,12.0
1981-08-24 03:41:13.780 ,5,0,0.,12.0,0.,12.0,0.,12.0,0.,12.0
1981-08-24 03:41:25.780 ,5,0,0.,12.0,0.,12.0,0.,12.0,0.,12.0
1981-08-24 03:41:37.780 ,4,1,0.,12.0,0.,12.0,0.,12.0,0.,12.0
1981-08-24 03:41:49.780 ,4,1,0.,12.0,0.,12.0,0.,12.0,0.,12.0
1981-08-24 03:42:01.780 ,4,0,0.,12.0,0.,12.0,0.,12.0,0.,12.0
1981-08-24 03:42:13.780 ,4,0,0.,12.0,0.,12.0,0.,12.0,0.,12.0
1981-08-24 03:42:25.780 ,3,1,0.,12.0,0.,12.0,0.,12.0,0.,12.0
1981-08-24 03:42:37.780 ,3,1,0.,12.0,0.,12.0,0.,12.0,0.,12.0
1981-08-24 03:42:49.780 ,3,0,0.,12.0,0.,12.0,0.,12.0,0.,12.0
1981-08-24 03:43:01.780 ,3,0,0.,12.0,0.,12.0,0.,12.0,0.,12.0
1981-08-24 03:43:13.780 ,2,1,0.,12.0,0.,12.0,0.,12.0,0.,12.0
1981-08-24 03:43:25.780 ,2,1,0.,12.0,0.,12.0,0.,12.0,0.,12.0
1981-08-24 03:43:37.780 ,2,0,0.,12.0,0.,12.0,0.,12.0,0.,12.0
1981-08-24 03:43:49.780 ,2,0,0.,12.0,0.,12.0,0.,12.0,0.,12.0
1981-08-24 03:44:01.780 ,1,1,0.,12.0,0.,12.0,0.,12.0,0.,12.0
1981-08-24 03:44:13.780 ,1,1,0.,12.0,0.,12.0,0.,12.0,0.,12.0
1981-08-24 03:44:25.780 ,1,0,0.,12.0,0.,12.0,0.,12.0,0.,12.0
1981-08-24 03:44:37.780 ,1,0,0.,12.0,0.,12.0,0.,12.0,0.,12.0
1981-08-24 03:44:49.780 ,0,1,0.,12.0,0.,12.0,0.,12.0,0.,12.0
1981-08-24 03:45:01.780 ,0,1,0.,12.0,0.,12.0,0.,12.0,0.,12.0
1981-08-24 03:45:13.780 ,0,0,0.,12.0,0.,12.0,0.,12.0,0.,12.0
1981-08-24 03:45:25.780 ,0,0,0.,12.0,0.,12.0,0.,12.0,0.,12.0
1981-08-24 03:45:37.780 ,0,1,0.,12.0,0.,12.0,0.,12.0,0.,12.0
1981-08-24 03:45:49.780 ,0,1,0.,12.0,0.,12.0,0.,12.0,0.,12.0
1981-08-24 03:46:01.780 ,0,0,0.,12.0,0.,12.0,0.,12.0,0.,12.0
1981-08-24 03:46:13.780 ,0,0,0.,12.0,0.,12.0,0.,12.0,0.,12.0
1981-08-24 03:46:25.780 ,1,1,0.,12.0,0.,12.0,0.,12.0,0.,12.0
1981-08-24 03:46:37.780 ,1,1,0.,12.0,0.,12.0,0.,12.0,0.,12.0
1981-08-24 03:46:49.780 ,1,0,0.,12.0,0.,12.0,0.,12.0,0.,12.0
1981-08-24 03:47:01.780 ,1,0,0.,12.0,0.,12.0,0.,12.0,0.,12.0
1981-08-24 03:47:13.780 ,2,1,0.,12.0,0.,12.0,0.,12.0,0.,12.0
1981-08-24 03:47:25.780 ,2,1,0.,12.0,0.,12.0,0.,12.0,0.,12.0
1981-08-24 03:47:37.780 ,2,0,0.,12.0,0.,12.0,0.,12.0,0.,12.0
1981-08-24 03:47:49.780 ,2,0,0.,12.0,0.,12.0,0.,12.0,0.,12.0
1981-08-24 03:48:01.780 ,3,1,0.,12.0,0.,12.0,0.,12.0,0.,12.0
1981-08-24 03:48:13.780 ,3,1,0.,12.0,0.,12.0,0.,12.0,0.,12.0
1981-08-24 03:48:25.780 ,3,0,0.,12.0,0.,12.0,0.,12.0,0.,12.0
1981-08-24 03:48:37.780 ,3,0,0.,12.0,0.,12.0,0.,12.0,0.,12.0
1981-08-24 03:48:49.780 ,4,1,0.,12.0,0.,12.0,0.,12.0,0.,12.0
1981-08-24 03:49:01.780 ,4,1,0.,12.0,0.,12.0,0.,12.0,0.,12.0
1981-08-24 03:49:13.780 ,4,0,0.,12.0,0.,12.0,0.,12.0,0.,12.0
1981-08-24 03:49:25.780 ,4,0,0.,12.0,0.,12.0,0.,12.0,0.,12.0
1981-08-24 03:49:37.780 ,5,1,0.,12.0,0.,12.0,0.,12.0,0.,12.0
1981-08-24 03:49:49.780 ,5,1,0.,12.0,0.,12.0,0.,12.0,0.,12.0
1981-08-24 03:50:01.780 ,5,0,0.,12.0,0.,12.0,0.,12.0,0.,12.0
1981-08-24 03:50:13.780 ,5,0,0.,12.0,0.,12.0,0.,12.0,0.,12.0
1981-08-24 03:50:25.780 ,6,1,0.,12.0,0.,12.0,0.,12.0,0.,12.0
1981-08-24 03:50:37.780 ,6,1,0.,12.0,0.,12.0,0.,12.0,0.,12.0
1981-08-24 03:50:49.780 ,6,0,0.,12.0,0.,12.0,0.,12.0,0.,12.0
1981-08-24 03:51:01.780 ,6,0,0.,12.0,0.,12.0,0.,12.0,0.,12.0
1981-08-24 03:51:13.780 ,7,1,0.,12.0,0.,12.0,0.,12.0,0.,12.0
1981-08-24 03:51:25.780 ,7,1,0.,12.0,0.,12.0,0.,12.0,0.,12.0
1981-08-24 03:51:37.780 ,7,0,0.,12.0,0.,12.0,0.,12.0,0.,12.0
1981-08-24 03:51:49.780 ,7,0,0.,12.0,0.,12.0,0.,12.0,0.,12.0
1981-08-24 03:52:01.780 ,7,1,0.,12.0,0.,12.0,0.,12.0,0.,12.0
1981-08-24 03:52:13.780 ,7,1,0.,12.0,0.,12.0,0.,12.0,0.,12.0
1981-08-24 03:52:25.780 ,6,1,0.,12.0,0.,12.0,0.,12.0,0.,12.0
1981-08-24 03:52:37.780 ,6,1,0.,12.0,0.,12.0,0.,12.0,0.,12.0
1981-08-24 03:52:49.780 ,5,1,0.,12.0,0.,12.0,0.,12.0,0.,12.0
1981-08-24 03:53:01.780 ,5,1,0.,12.0,0.,12.0,0.,12.0,0.,12.0
1981-08-24 03:53:13.780 ,4,1,0.,12.0,0.,12.0,0.,12.0,0.,12.0
1981-08-24 03:53:25.780 ,4,1,0.,12.0,0.,12.0,0.,12.0,0.,12.0
1981-08-24 03:53:37.780 ,3,1,0.,12.0,0.,12.0,0.,12.0,0.,12.0
1981-08-24 03:53:49.780 ,3,1,0.,12.0,0.,12.0,0.,12.0,0.,12.0
1981-08-24 03:54:01.780 ,2,1,0.,12.0,0.,12.0,0.,12.0,0.,12.0
1981-08-24 03:54:13.780 ,2,1,0.,12.0,0.,12.0,0.,12.0,0.,12.0
1981-08-24 03:54:25.780 ,1,1,0.,12.0,0.,12.0,0.,12.0,0.,12.0
1981-08-24 03:54:37.780 ,1,1,0.,12.0,0.,12.0,0.,12.0,0.,12.0
1981-08-24 03:54:49.780 ,0,1,0.,12.0,0.,12.0,0.,12.0,0.,12.0
1981-08-24 03:55:01.780 ,0,1,0.,12.0,0.,12.0,0.,12.0,0.,12.0
1981-08-24 03:55:13.780 ,0,1,0.,12.0,0.,12.0,0.,12.0,0.,12.0
1981-08-24 03:55:25.780 ,0,1,0.,12.0,0.,12.0,0.,12.0,0.,12.0
1981-08-24 03:55:37.780 ,1,1,0.,12.0,0.,12.0,0.,12.0,0.,12.0
1981-08-24 03:55:49.780 ,1,1,0.,12.0,0.,12.0,0.,12.0,0.,12.0
1981-08-24 03:56:01.780 ,2,1,0.,12.0,0.,12.0,0.,12.0,0.,12.0
1981-08-24 03:56:13.780 ,2,1,0.,12.0,0.,12.0,0.,12.0,0.,12.0
1981-08-24 03:56:25.780 ,3,1,0.,12.0,0.,12.0,0.,12.0,0.,12.0
1981-08-24 03:56:37.780 ,3,1,0.,12.0,0.,12.0,0.,12.0,0.,12.0
1981-08-24 03:56:49.780 ,4,1,0.,12.0,0.,12.0,0.,12.0,0.,12.0
1981-08-24 03:57:01.780 ,4,1,0.,12.0,0.,12.0,0.,12.0,0.,12.0
1981-08-24 03:57:13.780 ,5,1,0.,12.0,0.,12.0,0.,12.0,0.,12.0
1981-08-24 03:57:25.780 ,5,1,0.,12.0,0.,12.0,0.,12.0,0.,12.0
1981-08-24 03:57:37.780 ,6,1,0.,12.0,0.,12.0,0.,12.0,0.,12.0
1981-08-24 03:57:49.780 ,6,1,0.,12.0,0.,12.0,0.,12.0,0.,12.0
1981-08-24 03:58:01.780 ,7,1,0.,12.0,0.,12.0,0.,12.0,0.,12.0
1981-08-24 03:58:13.780 ,7,1,0.,12.0,0.,12.0,0.,12.0,0.,12.0
1981-08-24 03:58:25.780 ,7,1,0.,12.0,0.,12.0,0.,12.0,0.,12.0
1981-08-24 03:58:37.780 ,7,1,0.,12.0,0.,12.0,0.,12.0,0.,12.0
1981-08-24 03:58:49.780 ,7,0,0.,12.0,0.,12.0,0.,12.0,0.,12.0
1981-08-24 03:59:01.780 ,7,0,0.,12.0,0.,12.0,0.,12.0,0.,12.0
1981-08-24 03:59:13.780 ,6,1,0.,12.0,0.,12.0,0.,12.0,0.,12.0
1981-08-24 03:59:25.780 ,6,1,0.,12.0,0.,12.0,0.,12.0,0.,12.0
1981-08-24 03:59:37.780 ,6,0,0.,12.0,0.,12.0,0.,12.0,0.,12.0
1981-08-24 03:59:49.780 ,6,0,0.,12.0,0.,12.0,0.,12.0,0.,12.0
1981-08-24 04:00:01.780 ,5,1,0.,12.0,0.,12.0,0.,12.0,0.,12.0
1981-08-24 04:00:13.780 ,5,1,0.,12.0,0.,12.0,0.,12.0,0.,12.0
1981-08-24 04:00:25.780 ,5,0,0.,12.0,0.,12.0,0.,12.0,0.,12.0
1981-08-24 04:00:37.780 ,5,0,0.,12.0,0.,12.0,0.,12.0,0.,12.0
1981-08-24 04:00:49.780 ,4,1,0.,12.0,0.,12.0,0.,12.0,0.,12.0
1981-08-24 04:01:01.780 ,4,1,0.,12.0,0.,12.0,0.,12.0,0.,12.0
1981-08-24 04:01:13.780 ,4,0,0.,12.0,0.,12.0,0.,12.0,0.,12.0
1981-08-24 04:01:25.780 ,4,0,0.,12.0,0.,12.0,0.,12.0,0.,12.0
1981-08-24 04:01:37.780 ,3,1,0.,12.0,0.,12.0,0.,12.0,0.,12.0
1981-08-24 04:01:49.780 ,3,1,0.,12.0,0.,12.0,0.,12.0,0.,12.0
1981-08-24 04:02:01.780 ,3,0,0.,12.0,0.,12.0,0.,12.0,0.,12.0
1981-08-24 04:02:13.780 ,3,0,0.,12.0,0.,12.0,0.,12.0,0.,12.0
1981-08-24 04:02:25.780 ,2,1,0.,12.0,0.,12.0,0.,12.0,0.,12.0
1981-08-24 04:02:37.780 ,2,1,0.,12.0,0.,12.0,0.,12.0,0.,12.0
1981-08-24 04:02:49.780 ,2,0,0.,12.0,0.,12.0,0.,12.0,0.,12.0
1981-08-24 04:03:01.780 ,2,0,0.,12.0,0.,12.0,0.,12.0,0.,12.0
1981-08-24 04:03:13.780 ,1,1,0.,12.0,0.,12.0,0.,12.0,0.,12.0
1981-08-24 04:03:25.780 ,1,1,0.,12.0,0.,12.0,0.,12.0,0.,12.0
1981-08-24 04:03:37.780 ,1,0,0.,12.0,0.,12.0,0.,12.0,0.,12.0
1981-08-24 04:03:49.780 ,1,0,0.,12.0,0.,12.0,0.,12.0,0.,12.0
1981-08-24 04:04:01.780 ,0,1,0.,12.0,0.,12.0,0.,12.0,0.,12.0
1981-08-24 04:04:13.780 ,0,1,0.,12.0,0.,12.0,0.,12.0,0.,12.0
1981-08-24 04:04:25.780 ,0,0,0.,12.0,0.,12.0,0.,12.0,0.,12.0
1981-08-24 04:04:37.780 ,0,0,0.,12.0,0.,12.0,0.,12.0,0.,12.0
1981-08-24 04:04:49.780 ,0,1,0.,12.0,0.,12.0,0.,12.0,0.,12.0
1981-08-24 04:05:01.780 ,0,1,0.,12.0,0.,12.0,0.,12.0,0.,12.0
1981-08-24 04:05:13.780 ,0,0,0.,12.0,0.,12.0,0.,12.0,0.,12.0
1981-08-24 04:05:25.780 ,0,0,0.,12.0,0.,12.0,0.,12.0,0.,12.0
1981-08-24 04:05:37.780 ,1,1,0.,12.0,0.,12.0,0.,12.0,0.,12.0
1981-08-24 04:05:49.780 ,1,1,0.,12.0,0.,12.0,0.,12.0,0.,12.0
1981-08-24 04:06:01.780 ,1,0,0.,12.0,0.,12.0,0.,12.0,0.,12.0
1981-08-24 04:06:13.780 ,1,0,0.,12.0,0.,12.0,0.,12.0,0.,12.0
1981-08-24 04:06:25.780 ,2,1,0.,12.0,0.,12.0,0.,12.0,0.,12.0
1981-08-24 04:06:37.780 ,2,1,0.,12.0,0.,12.0,0.,12.0,0.,12.0
1981-08-24 04:06:49.780 ,2,0,0.,12.0,0.,12.0,0.,12.0,0.,12.0
1981-08-24 04:07:01.780 ,2,0,0.,12.0,0.,12.0,0.,12.0,0.,12.0
1981-08-24 04:07:13.780 ,3,1,0.,12.0,0.,12.0,0.,12.0,0.,12.0
1981-08-24 04:07:25.780 ,3,1,0.,12.0,0.,12.0,0.,12.0,0.,12.0
1981-08-24 04:07:37.780 ,3,0,0.,12.0,0.,12.0,0.,12.0,0.,12.0
1981-08-24 04:07:49.780 ,3,0,0.,12.0,0.,12.0,0.,12.0,0.,12.0
1981-08-24 04:08:01.780 ,4,1,0.,12.0,0.,12.0,0.,12.0,0.,12.0
1981-08-24 04:08:13.780 ,4,1,0.,12.0,0.,12.0,0.,12.0,0.,12.0
1981-08-24 04:08:25.780 ,4,0,0.,12.0,0.,12.0,0.,12.0,0.,12.0
1981-08-24 04:08:37.780 ,4,0,0.,12.0,0.,12.0,0.,12.0,0.,12.0
1981-08-24 04:08:49.780 ,5,1,0.,12.0,0.,12.0,0.,12.0,0.,12.0
1981-08-24 04:09:01.780 ,5,1,0.,12.0,0.,12.0,0.,12.0,0.,12.0
1981-08-24 04:09:13.780 ,5,0,0.,12.0,0.,12.0,0.,12.0,0.,12.0
1981-08-24 04:09:25.780 ,5,0,0.,12.0,0.,12.0,0.,12.0,0.,12.0
1981-08-24 04:09:37.780 ,6,1,0.,12.0,0.,12.0,0.,12.0,0.,12.0
1981-08-24 04:09:49.780 ,6,1,0.,12.0,0.,12.0,0.,12.0,0.,12.0
1981-08-24 04:10:01.780 ,6,0,0.,12.0,0.,12.0,0.,12.0,0.,12.0
1981-08-24 04:10:13.780 ,6,0,0.,12.0,0.,12.0,0.,12.0,0.,12.0
1981-08-24 04:10:25.780 ,7,1,0.,12.0,0.,12.0,0.,12.0,0.,12.0
1981-08-24 04:10:37.780 ,7,1,0.,12.0,0.,12.0,0.,12.0,0.,12.0
1981-08-24 04:10:49.780 ,7,0,0.,12.0,0.,12.0,0.,12.0,0.,12.0
1981-08-24 04:11:01.780 ,7,0,0.,12.0,0.,12.0,0.,12.0,0.,12.0
1981-08-24 04:11:13.780 ,7,1,0.,12.0,0.,12.0,0.,12.0,0.,12.0
1981-08-24 04:11:25.780 ,7,1,0.,12.0,0.,12.0,0.,12.0,0.,12.0
1981-08-24 04:11:37.780 ,6,1,0.,12.0,0.,12.0,0.,12.0,0.,12.0
1981-08-24 04:11:49.780 ,6,1,0.,12.0,0.,12.0,0.,12.0,0.,12.0
1981-08-24 04:12:01.780 ,5,1,0.,12.0,0.,12.0,0.,12.0,0.,12.0
1981-08-24 04:12:13.780 ,5,1,0.,12.0,0.,12.0,0.,12.0,0.,12.0
1981-08-24 04:12:25.780 ,4,1,0.,12.0,0.,12.0,0.,12.0,0.,12.0
1981-08-24 04:12:37.780 ,4,1,0.,12.0,0.,12.0,0.,12.0,0.,12.0
1981-08-24 04:12:49.780 ,3,1,0.,12.0,0.,12.0,0.,12.0,0.,12.0
1981-08-24 04:13:01.780 ,3,1,0.,12.0,0.,12.0,0.,12.0,0.,12.0
1981-08-24 04:13:13.780 ,2,1,0.,12.0,0.,12.0,0.,12.0,0.,12.0
1981-08-24 04:13:25.780 ,2,1,0.,12.0,0.,12.0,0.,12.0,0.,12.0
1981-08-24 04:13:37.780 ,1,1,0.,12.0,0.,12.0,0.,12.0,0.,12.0
1981-08-24 04:13:49.780 ,1,1,0.,12.0,0.,12.0,0.,12.0,0.,12.0
1981-08-24 04:14:01.780 ,0,1,0.,12.0,0.,12.0,0.,12.0,0.,12.0
1981-08-24 04:14:13.780 ,0,1,0.,12.0,0.,12.0,0.,12.0,0.,12.0
1981-08-24 04:14:25.780 ,0,1,0.,12.0,0.,12.0,0.,12.0,0.,12.0
1981-08-24 04:14:37.780 ,0,1,0.,12.0,0.,12.0,0.,12.0,0.,12.0
1981-08-24 04:14:49.780 ,1,1,0.,12.0,0.,12.0,0.,12.0,0.,12.0
1981-08-24 04:15:01.780 ,1,1,0.,12.0,0.,12.0,0.,12.0,0.,12.0
1981-08-24 04:15:13.780 ,2,1,0.,12.0,0.,12.0,0.,12.0,0.,12.0
1981-08-24 04:15:25.780 ,2,1,0.,12.0,0.,12.0,0.,12.0,0.,12.0
1981-08-24 04:15:37.780 ,3,1,0.,12.0,0.,12.0,0.,12.0,0.,12.0
1981-08-24 04:15:49.780 ,3,1,0.,12.0,0.,12.0,0.,12.0,0.,12.0
1981-08-24 04:16:01.780 ,4,1,0.,12.0,0.,12.0,0.,12.0,0.,12.0
1981-08-24 04:16:13.780 ,4,1,0.,12.0,0.,12.0,0.,12.0,0.,12.0
1981-08-24 04:16:25.780 ,5,1,0.,12.0,0.,12.0,0.,12.0,0.,12.0
1981-08-24 04:16:37.780 ,5,1,0.,12.0,0.,12.0,0.,12.0,0.,12.0
1981-08-24 04:16:49.780 ,6,1,0.,12.0,0.,12.0,0.,12.0,0.,12.0
1981-08-24 04:17:01.780 ,6,1,0.,12.0,0.,12.0,0.,12.0,0.,12.0
1981-08-24 04:17:13.780 ,7,1,0.,12.0,0.,12.0,0.,12.0,0.,12.0
1981-08-24 04:17:25.780 ,7,1,0.,12.0,0.,12.0,0.,12.0,0.,12.0
1981-08-24 04:17:37.780 ,7,1,0.,12.0,0.,12.0,0.,12.0,0.,12.0
1981-08-24 04:17:49.780 ,7,1,0.,12.0,0.,12.0,0.,12.0,0.,12.0
1981-08-24 04:18:01.780 ,7,0,0.,12.0,0.,12.0,0.,12.0,0.,12.0
1981-08-24 04:18:13.780 ,7,0,0.,12.0,0.,12.0,0.,12.0,0.,12.0